| time (UTC) | temp F | wind direction | speed MPH | gust MPH | rain 1hr in | rain 24hr in | rain mn in | humidity % | barometer mb |
| 20260505072006 | 44 | 18 | 1.0 | 5.0 | 1.42 | 3.37 | 1.31 | 44 | 1005.0 |
| 20260505071005 | 44 | 11 | 2.0 | 3.0 | 1.40 | 3.37 | 1.28 | 46 | 1004.9 |
| 20260505070006 | 43 | 355 | 2.0 | 3.0 | 1.40 | 3.37 | 1.26 | 48 | 1004.9 |
| 20260505065505 | 43 | 3 | 2.0 | 3.0 | 1.40 | 3.36 | 1.25 | 49 | 1004.9 |
| 20260505065005 | 43 | 291 | 1.0 | 5.0 | 1.42 | 3.37 | 1.24 | 49 | 1005.0 |
| 20260505064505 | 43 | 13 | 2.0 | 5.0 | 1.42 | 3.37 | 1.23 | 50 | 1005.0 |
| 20260505064005 | 43 | 309 | 2.0 | 3.0 | 1.40 | 3.37 | 1.21 | 51 | 1004.8 |
| 20260505063504 | 42 | 302 | 1.0 | 3.0 | 1.40 | 3.37 | 1.20 | 53 | 1004.9 |
| 20260505063007 | 42 | 333 | 2.0 | 6.0 | 1.40 | 3.37 | 1.19 | 52 | 1005.0 |
| 20260505062505 | 42 | 331 | 2.0 | 6.0 | 1.40 | 3.37 | 1.18 | 53 | 1005.0 |
| 20260505062004 | 41 | 307 | 2.0 | 3.0 | 1.40 | 3.36 | 1.17 | 53 | 1004.9 |
| 20260505061505 | 41 | 1 | 2.0 | 3.0 | 1.42 | 3.37 | 1.16 | 54 | 1004.9 |
| 20260505061005 | 41 | 10 | 1.0 | 3.0 | 1.40 | 3.37 | 1.14 | 54 | 1004.9 |
| 20260505060505 | 40 | 345 | 2.0 | 5.0 | 1.40 | 3.37 | 1.13 | 55 | 1004.9 |
| 20260505055505 | 39 | 324 | 2.0 | 5.0 | 1.44 | 3.37 | 1.11 | 58 | 1004.9 |
| 20260505055005 | 39 | 13 | 2.0 | 3.0 | 1.40 | 3.36 | 1.10 | 58 | 1004.9 |
| 20260505054506 | 39 | 20 | 2.0 | 5.0 | 1.40 | 3.36 | 1.08 | 59 | 1004.9 |
| 20260505052504 | 36 | 23 | 1.0 | 3.0 | 1.40 | 3.37 | 1.04 | 66 | 1004.9 |
| 20260505052005 | 36 | 39 | 1.0 | 3.0 | 1.40 | 3.37 | 1.03 | 68 | 1004.8 |
| 20260505051505 | 35 | 280 | 1.0 | 3.0 | 1.40 | 3.36 | 1.01 | 69 | 1004.8 |
| 20260505051004 | 34 | 295 | 1.0 | 3.0 | 1.42 | 3.37 | 1.00 | 71 | 1004.7 |
| 20260505050505 | 34 | 288 | 0.0 | 3.0 | 1.42 | 3.37 | 9.96 | 73 | 1004.8 |
| 20260505041505 | 30 | 289 | 0.0 | 1.0 | 1.40 | 3.37 | 8.78 | 75 | 1004.3 |
| 20260505041005 | 30 | 295 | 0.0 | 1.0 | 1.40 | 3.37 | 8.66 | 75 | 1004.3 |
| 20260505040505 | 30 | 294 | 0.0 | 1.0 | 1.40 | 3.36 | 8.54 | 75 | 1004.2 |
| 20260505040006 | 31 | 305 | 0.0 | 1.0 | 1.42 | 3.37 | 8.44 | 74 | 1004.2 |
| 20260505035504 | 31 | 291 | 0.0 | 1.0 | 1.42 | 3.37 | 8.32 | 74 | 1004.1 |
| 20260505035005 | 31 | 298 | 0.0 | 1.0 | 1.40 | 3.37 | 8.20 | 73 | 1004.1 |
| 20260505034506 | 31 | 300 | 0.0 | 1.0 | 1.40 | 3.37 | 8.08 | 73 | 1004.0 |
| 20260505034005 | 31 | 293 | 0.0 | 1.0 | 1.40 | 3.37 | 7.96 | 73 | 1004.0 |
| 20260505033504 | 31 | 291 | 0.0 | 1.0 | 1.40 | 3.37 | 7.84 | 73 | 1003.9 |
| 20260505033006 | 31 | 296 | 0.0 | 1.0 | 1.40 | 3.36 | 7.72 | 73 | 1003.9 |
| 20260505032004 | 32 | 293 | 0.0 | 1.0 | 1.42 | 3.37 | 7.50 | 72 | 1004.0 |
| 20260505031504 | 32 | 292 | 0.0 | 1.0 | 1.40 | 3.37 | 7.38 | 72 | 1004.0 |
| 20260505031005 | 32 | 304 | 0.0 | 1.0 | 1.40 | 3.37 | 7.26 | 72 | 1003.9 |
| 20260505030505 | 32 | 307 | 0.0 | 1.0 | 1.40 | 3.37 | 7.14 | 72 | 1003.9 |
| 20260505030005 | 32 | 296 | 0.0 | 1.0 | 1.40 | 3.37 | 7.02 | 72 | 1003.9 |
| 20260505025505 | 33 | 287 | 0.0 | 1.0 | 1.40 | 3.36 | 6.90 | 72 | 1003.9 |
| 20260505025005 | 33 | 297 | 0.0 | 1.0 | 1.42 | 3.37 | 6.80 | 72 | 1003.8 |
| 20260505024505 | 33 | 293 | 0.0 | 1.0 | 1.42 | 3.37 | 6.68 | 72 | 1003.7 |
| 20260505024005 | 33 | 302 | 0.0 | 1.0 | 1.40 | 3.37 | 6.56 | 72 | 1003.7 |
| 20260505023505 | 33 | 290 | 0.0 | 2.0 | 1.40 | 3.37 | 6.44 | 71 | 1003.7 |
| 20260505023005 | 33 | 298 | 1.0 | 2.0 | 1.40 | 3.37 | 6.32 | 71 | 1003.7 |
| 20260505022004 | 34 | 298 | 0.0 | 1.0 | 1.40 | 3.36 | 6.08 | 69 | 1003.7 |
| 20260505021005 | 34 | 299 | 0.0 | 1.0 | 1.42 | 3.37 | 5.86 | 69 | 1003.5 |
| 20260505020504 | 35 | 294 | 0.0 | 1.0 | 1.40 | 3.37 | 5.74 | 68 | 1003.4 |
| 20260505020005 | 35 | 292 | 0.0 | 1.0 | 1.40 | 3.37 | 5.62 | 68 | 1003.4 |
| 20260505015505 | 35 | 299 | 0.0 | 1.0 | 1.40 | 3.37 | 5.50 | 68 | 1003.3 |
| 20260505015005 | 35 | 298 | 0.0 | 1.0 | 1.40 | 3.37 | 5.38 | 68 | 1003.3 |
| 20260505014505 | 35 | 345 | 0.0 | 2.0 | 1.40 | 3.36 | 5.26 | 68 | 1003.1 |
| 20260505014005 | 35 | 291 | 0.0 | 2.0 | 1.42 | 3.37 | 5.16 | 67 | 1003.1 |
| 20260505013506 | 35 | 296 | 1.0 | 3.0 | 1.40 | 3.37 | 5.04 | 68 | 1003.0 |
| 20260505012505 | 36 | 280 | 1.0 | 3.0 | 1.40 | 3.37 | 4.80 | 67 | 1003.0 |
| 20260505012005 | 36 | 277 | 1.0 | 3.0 | 1.40 | 3.37 | 4.68 | 68 | 1003.0 |
| 20260505011506 | 36 | 281 | 0.0 | 2.0 | 1.40 | 3.36 | 4.56 | 67 | 1003.0 |
| 20260505011004 | 36 | 297 | 0.0 | 2.0 | 1.40 | 3.36 | 4.44 | 67 | 1002.9 |
| 20260505010006 | 37 | 260 | 1.0 | 3.0 | 1.40 | 3.37 | 4.22 | 67 | 1002.9 |
| 20260505005505 | 37 | 248 | 1.0 | 3.0 | 1.40 | 3.37 | 4.10 | 66 | 1002.8 |
| 20260505005005 | 37 | 274 | 0.0 | 5.0 | 1.40 | 3.37 | 3.98 | 66 | 1002.8 |
| 20260505004505 | 37 | 267 | 2.0 | 5.0 | 1.40 | 3.37 | 3.86 | 66 | 1002.7 |
| 20260505003505 | 37 | 271 | 1.0 | 3.0 | 1.42 | 3.37 | 3.64 | 65 | 1002.7 |
| 20260505002504 | 38 | 274 | 1.0 | 2.0 | 1.40 | 3.37 | 3.40 | 64 | 1002.8 |
| 20260505002005 | 38 | 272 | 0.0 | 1.0 | 1.40 | 3.37 | 3.28 | 65 | 1002.8 |
| 20260505001505 | 39 | 268 | 0.0 | 1.0 | 1.40 | 3.37 | 3.16 | 63 | 1002.7 |
| 20260505001005 | 39 | 278 | 0.0 | 1.0 | 1.40 | 3.37 | 3.04 | 62 | 1002.6 |
| 20260505000005 | 39 | 281 | 1.0 | 3.0 | 1.42 | 3.37 | 2.82 | 61 | 1002.5 |
| 20260504235504 | 39 | 266 | 1.0 | 3.0 | 1.42 | 3.37 | 2.70 | 61 | 1002.5 |
| 20260504235005 | 39 | 293 | 1.0 | 6.0 | 1.40 | 3.37 | 2.58 | 61 | 1002.4 |
| 20260504234505 | 40 | 294 | 1.0 | 6.0 | 1.40 | 3.37 | 2.46 | 60 | 1002.3 |
| 20260504234005 | 40 | 280 | 1.0 | 7.0 | 1.40 | 3.37 | 2.34 | 60 | 1002.2 |
| 20260504233505 | 40 | 305 | 2.0 | 8.0 | 1.40 | 3.37 | 2.22 | 61 | 1002.1 |
| 20260504233005 | 40 | 276 | 2.0 | 8.0 | 1.40 | 3.36 | 2.10 | 61 | 1002.0 |
| 20260504232504 | 40 | 275 | 3.0 | 7.0 | 1.42 | 3.37 | 2.00 | 62 | 1001.9 |
| 20260504231005 | 41 | 308 | 2.0 | 5.0 | 1.40 | 3.37 | 1.64 | 61 | 1002.2 |
| 20260504230005 | 41 | 302 | 2.0 | 3.0 | 1.40 | 3.37 | 1.40 | 61 | 1002.2 |
| 20260504225505 | 41 | 290 | 2.0 | 3.0 | 1.40 | 3.36 | 1.28 | 61 | 1002.2 |
| 20260504225005 | 41 | 310 | 2.0 | 3.0 | 1.42 | 3.37 | 1.18 | 60 | 1002.1 |
| 20260504224505 | 41 | 10 | 1.0 | 3.0 | 1.42 | 3.37 | 1.06 | 61 | 1002.1 |
| 20260504224004 | 41 | 332 | 1.0 | 5.0 | 1.42 | 3.37 | 0.94 | 61 | 1002.0 |
| 20260504223504 | 41 | 334 | 2.0 | 5.0 | 1.40 | 3.37 | 0.82 | 62 | 1001.9 |
| 20260504223005 | 42 | 271 | 2.0 | 6.0 | 1.40 | 3.37 | 0.70 | 64 | 1001.9 |
| 20260504222505 | 42 | 288 | 2.0 | 6.0 | 1.40 | 3.36 | 0.58 | 64 | 1001.9 |
| 20260504222005 | 42 | 289 | 1.0 | 6.0 | 1.42 | 3.37 | 0.48 | 66 | 1001.8 |
| 20260504221504 | 42 | 302 | 2.0 | 3.0 | 1.42 | 3.37 | 0.36 | 66 | 1001.6 |
| 20260504221004 | 43 | 288 | 1.0 | 5.0 | 1.42 | 3.37 | 0.24 | 65 | 1001.5 |
| 20260504220505 | 43 | 301 | 1.0 | 5.0 | 1.40 | 3.37 | 0.12 | 65 | 1001.6 |
| 20260504220006 | 43 | 339 | 1.0 | 5.0 | 1.40 | 3.37 | 0.00 | 65 | 1001.5 |
| 20260504215505 | 43 | 4 | 1.0 | 3.0 | 1.40 | 3.37 | 3.36 | 65 | 1001.5 |
| 20260504215005 | 44 | 290 | 2.0 | 3.0 | 1.40 | 3.36 | 3.34 | 64 | 1001.4 |
| 20260504213005 | 45 | 14 | 2.0 | 6.0 | 1.40 | 3.37 | 3.30 | 62 | 1001.2 |
| 20260504212505 | 45 | 20 | 1.0 | 6.0 | 1.40 | 3.37 | 3.29 | 63 | 1001.1 |
| 20260504212005 | 45 | 24 | 2.0 | 5.0 | 1.40 | 3.37 | 3.27 | 63 | 1001.1 |
| 20260504211005 | 46 | 347 | 2.0 | 5.0 | 1.42 | 3.37 | 3.25 | 62 | 1000.9 |
| 20260504210505 | 46 | 342 | 2.0 | 5.0 | 1.42 | 3.37 | 3.24 | 62 | 1000.9 |
| 20260504210006 | 46 | 306 | 2.0 | 6.0 | 1.40 | 3.37 | 3.23 | 61 | 1000.7 |
| 20260504205505 | 47 | 317 | 2.0 | 7.0 | 1.40 | 3.37 | 3.22 | 61 | 1000.7 |
| 20260504205005 | 47 | 283 | 3.0 | 7.0 | 1.40 | 3.37 | 3.20 | 61 | 1000.6 |
| 20260504204005 | 47 | 281 | 3.0 | 7.0 | 1.40 | 3.36 | 3.18 | 62 | 1000.3 |
| 20260504203505 | 47 | 347 | 2.0 | 7.0 | 1.42 | 3.37 | 3.17 | 63 | 1000.4 |
| 20260504203006 | 48 | 292 | 2.0 | 6.0 | 1.42 | 3.37 | 3.16 | 65 | 1000.4 |
| 20260504202504 | 48 | 294 | 2.0 | 7.0 | 1.40 | 3.37 | 3.15 | 65 | 1000.4 |
| 20260504202005 | 49 | 337 | 3.0 | 12.0 | 1.40 | 3.37 | 3.13 | 65 | 1000.4 |
| 20260504201005 | 50 | 297 | 7.0 | 14.0 | 1.40 | 3.36 | 3.11 | 61 | 1000.2 |
| 20260504200505 | 50 | 291 | 3.0 | 9.0 | 1.40 | 3.36 | 3.10 | 60 | 999.8 |
| 20260504200004 | 51 | 293 | 4.0 | 9.0 | 1.42 | 3.37 | 3.09 | 59 | 999.7 |
| 20260504195505 | 51 | 283 | 3.0 | 8.0 | 1.40 | 3.37 | 3.08 | 59 | 999.6 |
| 20260504195005 | 51 | 269 | 2.0 | 9.0 | 1.40 | 3.37 | 3.06 | 59 | 999.5 |
| 20260504194505 | 51 | 243 | 2.0 | 12.0 | 1.40 | 3.37 | 3.05 | 58 | 999.5 |
| 20260504194005 | 52 | 257 | 4.0 | 12.0 | 1.40 | 3.37 | 3.04 | 57 | 999.4 |
| 20260504193504 | 52 | 314 | 3.0 | 10.0 | 1.40 | 3.36 | 3.03 | 57 | 999.3 |
| 20260504192504 | 52 | 265 | 3.0 | 10.0 | 1.42 | 3.37 | 3.01 | 56 | 999.2 |
| 20260504192005 | 52 | 234 | 2.0 | 10.0 | 1.40 | 3.37 | 2.99 | 55 | 999.1 |
| 20260504191504 | 53 | 238 | 3.0 | 12.0 | 1.40 | 3.37 | 2.98 | 55 | 999.1 |
| 20260504190504 | 53 | 265 | 3.0 | 12.0 | 1.40 | 3.37 | 2.96 | 54 | 998.9 |
| 20260504190007 | 53 | 256 | 3.0 | 12.0 | 1.40 | 3.36 | 2.95 | 54 | 999.0 |
| 20260504185005 | 53 | 258 | 3.0 | 10.0 | 1.42 | 3.37 | 2.92 | 53 | 999.0 |
| 20260504184505 | 53 | 262 | 2.0 | 8.0 | 1.40 | 3.37 | 2.91 | 52 | 999.2 |
| 20260504184004 | 54 | 277 | 3.0 | 17.0 | 1.40 | 3.37 | 2.90 | 50 | 999.2 |
| 20260504183504 | 54 | 302 | 3.0 | 17.0 | 1.40 | 3.37 | 2.89 | 50 | 999.1 |
| 20260504183005 | 54 | 274 | 3.0 | 12.0 | 1.40 | 3.37 | 2.88 | 49 | 999.1 |
| 20260504182505 | 54 | 279 | 2.0 | 12.0 | 1.40 | 3.36 | 2.86 | 48 | 999.1 |
| 20260504182005 | 55 | 290 | 3.0 | 12.0 | 1.42 | 3.37 | 2.85 | 48 | 999.0 |
| 20260504181505 | 55 | 255 | 2.0 | 8.0 | 1.42 | 3.37 | 2.84 | 47 | 998.9 |
| 20260504181005 | 55 | 272 | 2.0 | 9.0 | 1.40 | 3.37 | 2.83 | 47 | 998.9 |
| 20260504180005 | 55 | 258 | 4.0 | 12.0 | 1.40 | 3.37 | 2.81 | 46 | 998.8 |
| 20260504175505 | 56 | 254 | 2.0 | 12.0 | 1.40 | 3.37 | 2.79 | 47 | 998.7 |
| 20260504175005 | 56 | 256 | 4.0 | 12.0 | 1.40 | 3.36 | 2.78 | 46 | 998.8 |
| 20260504174506 | 56 | 306 | 3.0 | 12.0 | 1.42 | 3.37 | 2.77 | 46 | 998.8 |
| 20260504174005 | 56 | 272 | 3.0 | 12.0 | 1.40 | 3.37 | 2.76 | 45 | 998.8 |
| 20260504173505 | 56 | 266 | 2.0 | 9.0 | 1.40 | 3.37 | 2.75 | 46 | 998.9 |
| 20260504173005 | 57 | 267 | 3.0 | 9.0 | 1.40 | 3.37 | 2.74 | 44 | 998.8 |
| 20260504172505 | 57 | 249 | 2.0 | 9.0 | 1.40 | 3.37 | 2.72 | 44 | 998.8 |
| 20260504172005 | 57 | 278 | 5.0 | 13.0 | 1.40 | 3.37 | 2.71 | 43 | 998.8 |
| 20260504171506 | 57 | 291 | 3.0 | 13.0 | 1.40 | 3.36 | 2.70 | 43 | 998.7 |
| 20260504170505 | 58 | 261 | 3.0 | 12.0 | 1.42 | 3.37 | 2.68 | 42 | 998.6 |
| 20260504151006 | 58 | 201 | 5.0 | 17.0 | 1.40 | 3.37 | 2.41 | 48 | 999.2 |
| 20260504150504 | 58 | 245 | 4.0 | 16.0 | 1.40 | 3.37 | 2.40 | 48 | 999.2 |
| 20260504141005 | 61 | 217 | 6.0 | 14.0 | 1.40 | 3.37 | 2.27 | 35 | 999.6 |
| 20260504140505 | 62 | 226 | 6.0 | 16.0 | 1.40 | 3.37 | 2.26 | 33 | 999.6 |
| 20260504130504 | 62 | 277 | 2.0 | 5.0 | 1.40 | 3.37 | 2.12 | 31 | 999.8 |
| 20260504110504 | 59 | 296 | 4.0 | 12.0 | 1.40 | 3.37 | 1.83 | 33 | 1000.2 |
| 20260504082004 | 55 | 304 | 3.0 | 10.0 | 1.40 | 3.37 | 1.45 | 52 | 1000.0 |
| 20260504081505 | 55 | 263 | 3.0 | 10.0 | 1.40 | 3.37 | 1.44 | 52 | 1000.0 |
| 20260504081006 | 54 | 356 | 2.0 | 7.0 | 1.40 | 3.36 | 1.42 | 55 | 1000.0 |
| 20260504080504 | 54 | 278 | 2.0 | 5.0 | 1.42 | 3.37 | 1.41 | 58 | 1000.0 |